Torna al catalogo

NIMBUS 2 DEB

AttivoSSO
NORAD 59969·DEBRIS·🇺🇸 United States

Lanciato May 15, 1966 da Vandenberg Space Force Base

Loading…

Prossimi Passaggi (prossime 24 ore)

TLE

AggiornatoSource: Space-Track

Epoca: Sep 14, 2026, 09:42 UTC

1 59969U 66040BY  26257.40437004  .00002010  00000-0  33476-2 0  9996
2 59969 100.1640  67.8966 0046869 325.2513  34.5560 13.47363653374668

Traccia NIMBUS 2 DEB in tempo reale con AllMySat

Download on the App Store